Regional Weather Roundup
Issued by NWS State College, PA

Home | Current Version | Previous Version | Text Only | Print | Product List | Glossary On
Versions: 1 2 3 4 5 6 7 8 9 10 11 12 13 14 15 16 17 18 19 20 21 22 23 24 25 26 27 28 29 30 31 32 33 34 35 36 37 38 39 40 41 42 43 44 45 46 47 48 49 50
000
ASUS41 KCTP 192303
RWRCTP

REGIONAL WEATHER ROUNDUP
NATIONAL WEATHER SERVICE STATE COLLEGE PA
700 PM EDT THU OCT 19 2017

Note: "fair" indicates few or no clouds below 12,000 feet with no
significant weather and/or obstructions to visibility.

* = STATION THAT DOES NOT REPORT PRECIPITATION /E.G. RAIN...SNOW...ETC/
    THUNDER OR FOG.

PAZ002>004-007>009-013>016-020>023-029>032-200000-
WESTERN PENNSYLVANIA

CITY           SKY/WX    TMP DP  RH WIND       PRES   REMARKS
ERIE           PTCLDY    63  57  81 W9        30.12R
MEADVILLE      PTCLDY    64  49  57 SW7       30.12R
FRANKLIN*      PTCLDY    64  48  56 SW7       30.14R
NEW CASTLE     FAIR      66  49  54 SW6       30.15R
BEAVER COUNTY  CLEAR     64  46  52 SW8       30.15R
BUTLER*        CLEAR     64  47  53 SW6       30.16R
PITTSBURGH INT MOCLDY    66  46  48 SW7       30.16R
PITTSBURGH     CLEAR     65  42  43 SW8       30.16R
INDIANA*       CLEAR     61  45  55 W5        30.18R
LATROBE        PTCLDY    61  45  55 SW6       30.17R
WASHINGTON CO* CLEAR     64  45  49 SW6       30.20R
$$

PAZ004>006-010>012-017>019-024>028-033>037-041-042-045-046-049>053-200000-
CENTRAL PENNSYLVANIA

CITY           SKY/WX    TMP DP  RH WIND       PRES   REMARKS
BRADFORD       MOCLDY    62  46  55 SW5       30.12R
DUBOIS         CLEAR     58  44  60 SW7       30.14R
CLEARFIELD     CLEAR     63  43  48 W7        30.14R
JOHNSTOWN      CLEAR     60  41  49 W13       30.17R
ALTOONA        CLEAR     63  40  42 W8        30.16R
STATE COLLEGE  CLEAR     61  43  51 W8        30.12S
WILLIAMSPORT   CLEAR     68  43  40 CALM      30.06R
SELINSGROVE    CLEAR     62  50  64 CALM      30.10R
FT INDIANTOWN  NOT AVBL
CAPITAL CITY   CLEAR     65  47  52 SW3       30.10S
HARRISBURG     PTCLDY    63  53  70 VRB6      30.10S
YORK           CLEAR     62  47  57 S8        30.12S
$$

PAZ038>040-043-044-047-048-054-055-060>062-067>071-200000-
EASTERN PENNSYLVANIA

CITY           SKY/WX    TMP DP  RH WIND       PRES   REMARKS
SCRANTON       CLEAR     65  43  44 SW8       30.09R
MOUNT POCONO   CLEAR     57  46  66 SW6       30.11R
ALLENTOWN      CLEAR     61  46  57 W8        30.10S
QUAKERTOWN*    CLEAR     59  48  67 SW3       30.12S
READING        CLEAR     65  47  52 S3        30.10S
LANCASTER      CLEAR     66  46  48 SW6       30.11S
COATESVILLE    CLEAR     61  50  67 CALM      30.15R
POTTSTOWN      CLEAR     62  47  57 S3        30.13R
BLUE BELL      CLEAR     52  46  82 CALM      30.13R
DOYLESTOWN     CLEAR     63  43  48 S3        30.11R
WILLOW GROVE   NOT AVBL
NORTH PHILA    CLEAR     67  45  45 SW8       30.14R
PHILADELPHIA   PTCLDY    67  45  45 SW10      30.13R
$$



USA.gov is the U.S. government's official web portal to all federal, state and local government web resources and services.